Wind_Speed
38 40 41 42 42 43 44 44 45 45 45 45 46 46 47 48 48 49 49 50 51 51 51 50 49 50 51 51 51 51 52 52 52 51 50 50 49 49 49 48 48 48 47
39 40 41 42 43 44 44 45 45 45 46 46 47 48 49 49 49 49 49 50 51 52 51 52 51 51 51 52 52 52 51 52 53 53 52 52 52 52 52 52 51 50 50
40 41 42 42 43 43 44 45 45 46 46 47 47 48 49 49 49 49 49 50 51 52 52 53 53 53 52 52 53 54 52 53 54 54 54 54 53 53 53 53 53 52 52
40 41 41 41 42 43 44 45 45 46 46 47 47 48 49 49 49 49 50 50 51 52 52 53 53 53 54 53 53 54 53 54 55 55 56 56 56 56 54 54 54 54 54
40 40 40 41 42 42 44 45 45 46 46 47 48 49 49 49 49 49 50 51 52 52 53 53 54 55 55 55 55 54 54 54 54 55 55 56 55 56 56 55 54 55 55
40 41 41 42 42 43 44 45 46 47 48 48 49 49 49 49 50 50 50 51 51 52 53 54 55 55 55 55 55 55 55 55 55 55 55 55 55 55 56 55 55 55 55
40 41 42 43 43 44 46 46 47 48 48 48 48 49 49 50 50 51 51 51 51 52 52 53 54 55 55 55 56 55 55 55 55 55 55 55 56 55 56 56 56 56 55
41 41 42 42 44 45 46 47 48 48 48 48 49 49 49 50 51 51 50 51 51 51 52 52 53 54 54 55 55 55 55 55 55 55 55 54 55 55 55 56 56 57 56
41 41 42 43 44 45 45 46 47 47 48 48 48 49 49 49 50 50 51 51 51 51 52 51 51 52 53 53 54 54 54 54 54 55 55 55 55 55 55 56 56 57 56
41 41 42 43 44 45 45 45 45 46 47 47 48 48 48 48 49 49 50 51 51 50 50 50 50 50 51 51 51 52 52 53 53 53 54 55 55 55 55 56 57 57 58
41 42 42 43 43 44 45 45 45 45 46 46 47 47 48 49 49 49 49 49 49 49 49 50 50 50 51 50 50 50 50 50 51 51 52 53 54 55 55 55 56 56 57
41 42 43 43 43 44 45 45 45 45 45 46 46 47 48 49 49 49 49 48 48 48 48 49 49 50 51 51 51 51 50 50 49 49 50 51 52 54 54 54 55 56 56
42 43 43 44 43 43 44 44 44 45 46 46 46 47 47 47 48 48 48 47 47 47 48 48 48 48 50 51 51 50 50 50 49 49 49 50 51 51 52 54 55 56 57
44 44 44 43 43 43 43 44 44 45 45 45 46 46 47 47 46 46 46 46 46 46 46 47 47 48 49 50 50 50 49 49 49 49 49 50 50 50 51 52 53 55 56
45 44 43 43 43 43 44 44 43 44 44 45 45 45 45 45 44 44 44 45 45 45 45 46 46 47 47 48 49 49 49 49 49 49 50 51 51 50 50 51 52 54 55
44 43 43 43 43 43 44 44 43 44 44 44 44 44 44 43 43 43 43 43 44 44 45 45 45 45 46 46 48 49 50 50 50 49 49 50 50 51 51 51 51 52 53
44 43 42 43 43 43 44 44 43 43 43 43 43 43 43 42 42 43 42 42 42 43 43 43 43 43 44 45 46 48 49 50 50 50 49 49 49 50 51 51 51 52 53
44 43 43 43 43 44 44 43 42 42 43 43 42 41 41 41 41 41 41 40 41 41 41 41 41 42 42 43 44 45 47 48 48 48 48 48 48 49 50 50 51 52 52
44 44 44 44 44 44 44 43 42 42 42 42 41 40 39 39 38 38 39 39 39 39 39 40 40 41 41 41 42 43 44 44 45 45 46 46 46 46 47 48 49 50 51
44 44 44 44 44 44 43 43 42 42 42 41 40 39 38 38 37 37 38 37 37 37 37 38 39 39 40 40 41 41 41 42 43 43 44 45 44 44 45 45 46 47 47
44 44 44 44 44 43 43 43 42 42 42 41 39 38 37 37 36 36 36 36 36 36 36 37 37 37 38 38 39 40 40 40 41 42 42 43 43 43 43 43 43 44 45
43 44 43 43 43 43 42 42 42 41 41 40 39 37 36 36 36 35 35 34 34 34 34 33 34 34 34 34 36 37 38 38 38 38 39 40 40 41 42 42 41 41 42
43 43 43 43 42 42 42 41 40 40 39 38 37 36 35 35 34 33 33 32 32 32 32 32 31 31 31 32 33 33 35 35 35 35 35 36 38 39 39 40 40 40 40
43 43 42 42 42 42 42 40 39 38 37 36 34 34 34 33 32 32 31 31 30 30 30 30 30 30 30 30 31 32 32 32 33 34 34 35 36 36 37 37 37 37 37
42 42 41 41 41 40 39 38 37 36 35 34 34 33 32 31 31 30 30 29 29 29 29 29 29 29 29 29 30 30 30 30 31 32 33 33 33 34 35 36 36 36 37
41 41 40 39 38 37 36 36 35 34 33 32 32 31 31 30 29 28 28 27 27 27 28 28 28 27 27 27 28 28 29 29 30 31 31 31 32 32 33 33 34 34 35
Wind_Direction
280 279 279 279 279 278 277 277 275 273 272 271 269 268 268 267 266 266 266 264 263 262 261 262 261 261 261 261 261 260 259 258 257 256 255 254 254 253 253 252 251 251 251
281 281 280 281 280 279 278 277 276 274 273 272 270 269 268 269 267 267 266 265 264 263 262 262 261 261 261 261 261 261 260 258 258 257 256 255 254 254 254 253 252 251 251
283 282 282 281 281 279 278 278 277 275 274 273 272 271 270 270 269 267 267 267 265 263 262 263 262 261 260 260 261 260 261 259 258 258 257 256 254 255 254 253 252 251 251
285 284 282 281 281 281 280 278 278 276 275 274 272 272 272 271 270 269 268 268 267 265 263 263 263 262 261 261 261 261 261 260 259 258 258 258 257 256 253 252 252 252 251
287 285 283 282 282 282 280 279 278 277 276 275 274 274 273 272 271 270 269 268 268 266 265 264 263 263 262 261 261 261 260 261 260 259 258 258 258 256 254 252 251 251 250
289 287 285 284 284 284 282 280 280 280 279 278 277 276 275 274 273 272 270 268 268 267 266 264 263 262 262 261 261 261 261 260 260 259 258 258 258 257 255 253 250 250 250
291 288 287 286 285 285 285 282 282 282 281 280 279 277 276 276 275 274 272 269 268 268 266 266 263 261 260 260 260 260 260 260 260 259 258 258 257 256 255 254 251 249 249
293 290 289 288 287 287 286 285 283 283 282 281 279 278 278 277 276 275 273 271 268 267 266 266 264 261 259 259 259 260 259 260 259 259 259 258 258 256 255 254 253 251 249
295 293 291 290 289 289 288 287 286 284 282 281 280 280 279 278 277 275 274 272 271 268 266 265 264 261 259 259 259 259 259 259 259 259 259 258 257 257 256 255 254 252 250
296 295 293 293 292 291 289 288 287 285 284 282 281 280 279 279 278 277 276 273 271 268 266 265 263 261 260 259 259 259 259 259 259 259 258 257 257 257 256 255 254 253 252
298 298 296 295 293 292 291 290 288 287 286 284 283 281 280 279 279 278 276 274 270 268 267 265 263 262 261 259 259 259 259 259 259 258 258 258 257 257 257 256 255 253 252
299 298 298 297 295 294 293 291 290 288 288 286 285 283 282 281 280 279 277 273 270 269 267 266 265 263 261 260 260 259 259 259 259 259 258 259 258 257 257 256 255 254 253
298 300 299 297 296 296 294 293 292 291 289 288 287 285 284 283 281 280 277 273 271 270 268 266 265 264 262 261 260 259 258 258 259 259 259 259 259 258 257 256 255 255 254
298 299 299 297 296 297 297 296 294 292 290 289 288 287 285 284 282 280 277 274 271 270 269 267 265 264 263 261 259 258 257 257 258 259 259 259 258 258 257 256 256 255 255
298 299 298 297 297 297 297 297 296 294 292 291 290 289 287 285 283 280 277 275 272 270 269 268 266 265 264 261 260 258 258 257 257 259 259 258 258 258 258 257 256 256 254
299 299 298 297 297 298 298 297 297 296 295 293 291 289 287 285 283 281 279 277 275 272 270 269 267 266 264 262 261 260 259 258 257 258 258 258 259 258 258 257 256 255 254
299 299 299 298 298 298 299 297 297 297 296 294 293 290 288 286 284 283 281 279 277 274 272 270 268 266 264 263 263 261 261 260 259 259 258 258 258 257 257 256 256 256 255
299 299 299 298 298 298 298 298 299 298 298 296 294 292 290 288 286 284 282 280 278 276 274 271 270 268 265 264 264 263 262 261 260 258 258 258 257 257 257 256 256 256 255
299 299 299 299 298 298 298 299 298 298 298 296 295 294 292 290 288 286 284 282 280 278 276 274 271 269 267 266 266 265 263 261 259 257 256 257 258 257 256 257 257 256 255
299 299 299 299 299 299 299 299 298 298 298 298 295 293 293 291 289 287 286 284 281 279 277 275 273 271 269 267 267 266 264 262 260 258 256 256 257 256 256 257 257 256 255
299 299 300 301 301 300 299 298 298 297 297 297 297 294 292 292 290 289 287 285 283 281 278 276 274 273 270 268 267 266 266 265 262 261 259 257 256 255 255 256 257 256 255
300 300 300 301 302 301 300 299 298 298 297 297 296 294 293 293 292 290 288 286 284 282 279 277 276 274 271 269 268 267 266 265 264 263 260 258 256 255 254 254 254 255 255
301 301 301 301 302 301 301 300 299 299 299 298 296 294 294 294 293 291 288 286 284 282 280 278 277 275 272 271 269 268 266 265 264 263 261 259 257 255 255 255 253 253 253
301 301 301 301 301 302 302 301 300 300 299 298 296 295 295 294 293 291 289 287 285 282 281 280 278 276 274 273 272 270 268 265 263 262 262 260 258 255 254 254 254 253 254
302 302 302 302 302 303 302 302 301 301 300 298 297 296 296 296 295 292 290 287 286 283 281 280 279 278 275 274 272 271 269 267 265 264 263 262 259 256 255 255 254 254 255
303 303 303 303 303 303 303 303 302 302 301 299 298 297 296 296 296 295 294 291 288 286 282 280 280 279 276 273 272 271 270 268 267 265 263 262 259 258 256 256 256 255 255
Height
5705 5703 5702 5700 5699 5697 5695 5694 5692 5691 5690 5690 5690 5689 5689 5689 5689 5690 5691 5692 5693 5694 5695 5697 5698 5700 5702 5703 5705 5707 5709 5711 5713 5716 5719 5722 5724 5727 5729 5732 5735 5738 5741
5694 5693 5691 5689 5687 5685 5683 5682 5680 5679 5678 5678 5677 5677 5677 5676 5676 5676 5677 5677 5678 5679 5681 5682 5684 5686 5687 5689 5691 5693 5695 5697 5699 5702 5705 5708 5712 5714 5716 5719 5722 5725 5728
5684 5682 5680 5678 5676 5674 5672 5670 5669 5667 5666 5665 5664 5664 5663 5663 5663 5663 5663 5663 5664 5665 5666 5667 5669 5671 5673 5675 5676 5678 5681 5683 5684 5686 5689 5693 5697 5700 5703 5705 5708 5711 5715
5674 5671 5669 5667 5665 5663 5660 5658 5657 5655 5654 5652 5652 5651 5650 5650 5649 5649 5649 5649 5650 5650 5651 5653 5654 5655 5657 5659 5661 5663 5665 5667 5670 5671 5673 5677 5680 5684 5689 5692 5694 5697 5701
5663 5661 5658 5656 5654 5651 5649 5647 5645 5643 5641 5640 5639 5638 5637 5636 5636 5635 5635 5635 5635 5635 5636 5637 5639 5640 5642 5643 5645 5647 5649 5651 5654 5656 5658 5661 5664 5667 5671 5677 5680 5682 5686
5653 5650 5647 5645 5643 5640 5637 5635 5633 5630 5629 5627 5626 5625 5624 5623 5622 5621 5621 5621 5620 5620 5620 5621 5623 5624 5626 5627 5629 5631 5633 5636 5638 5640 5643 5645 5648 5652 5655 5660 5664 5667 5671
5643 5639 5637 5634 5631 5629 5626 5623 5620 5618 5616 5614 5612 5611 5610 5608 5607 5606 5606 5606 5605 5605 5605 5606 5607 5608 5610 5611 5613 5615 5618 5620 5622 5624 5627 5630 5633 5636 5639 5643 5647 5652 5656
5633 5629 5626 5623 5620 5617 5614 5611 5608 5605 5603 5601 5599 5597 5596 5594 5593 5592 5591 5591 5590 5590 5590 5590 5591 5593 5594 5595 5597 5599 5602 5604 5606 5608 5611 5614 5617 5619 5622 5626 5630 5635 5640
5623 5619 5616 5612 5609 5605 5602 5599 5596 5593 5590 5588 5586 5584 5582 5580 5578 5577 5576 5575 5575 5575 5575 5575 5576 5577 5578 5580 5582 5584 5586 5588 5590 5592 5595 5598 5601 5603 5606 5609 5613 5618 5623
5613 5609 5606 5602 5598 5594 5590 5587 5584 5581 5578 5575 5573 5571 5568 5566 5564 5563 5561 5560 5559 5559 5560 5560 5561 5562 5564 5565 5567 5569 5571 5572 5575 5577 5579 5582 5584 5587 5590 5593 5597 5600 5606
5603 5599 5595 5591 5586 5582 5579 5575 5572 5568 5565 5563 5560 5557 5555 5553 5550 5548 5547 5545 5545 5545 5545 5546 5547 5548 5549 5550 5552 5554 5556 5558 5560 5562 5564 5566 5568 5571 5574 5577 5580 5584 5588
5593 5589 5584 5580 5576 5572 5568 5564 5560 5556 5553 5550 5547 5544 5541 5539 5536 5534 5532 5531 5530 5530 5531 5531 5532 5533 5534 5536 5537 5539 5541 5543 5545 5547 5549 5551 5553 5556 5559 5561 5564 5568 5572
5583 5578 5574 5569 5565 5561 5557 5552 5548 5545 5541 5537 5534 5531 5528 5525 5522 5520 5518 5517 5517 5516 5516 5517 5518 5519 5520 5521 5522 5524 5526 5528 5531 5533 5535 5537 5538 5541 5543 5546 5549 5552 5555
5572 5568 5563 5558 5554 5550 5545 5541 5537 5532 5529 5525 5522 5518 5515 5512 5509 5507 5505 5504 5503 5503 5503 5503 5503 5504 5505 5506 5507 5509 5511 5514 5516 5518 5520 5522 5524 5526 5528 5531 5533 5536 5539
5561 5557 5552 5548 5543 5539 5534 5529 5525 5520 5516 5513 5509 5505 5502 5499 5496 5494 5492 5491 5490 5489 5489 5489 5489 5489 5490 5491 5492 5494 5497 5499 5501 5503 5505 5507 5509 5511 5513 5515 5518 5520 5523
5551 5546 5541 5537 5533 5528 5523 5518 5513 5509 5504 5500 5496 5493 5490 5487 5484 5482 5480 5478 5477 5476 5475 5475 5475 5475 5476 5476 5477 5479 5481 5483 5486 5488 5490 5492 5494 5496 5498 5500 5503 5505 5508
5540 5535 5531 5526 5521 5516 5511 5507 5502 5497 5493 5488 5484 5481 5477 5475 5472 5469 5467 5465 5464 5463 5462 5462 5461 5461 5461 5462 5463 5463 5465 5468 5470 5472 5474 5477 5479 5480 5483 5485 5487 5490 5492
5529 5525 5520 5515 5510 5505 5500 5495 5490 5486 5481 5477 5473 5469 5465 5463 5460 5457 5455 5453 5452 5450 5449 5449 5448 5448 5448 5448 5449 5449 5450 5453 5454 5456 5459 5461 5463 5465 5467 5469 5471 5474 5477
5518 5514 5509 5504 5499 5494 5488 5483 5479 5474 5470 5465 5461 5457 5454 5451 5448 5446 5443 5441 5440 5438 5437 5436 5436 5436 5436 5435 5435 5435 5436 5438 5440 5442 5443 5445 5448 5450 5452 5454 5457 5459 5462
5507 5502 5497 5492 5487 5482 5477 5472 5467 5463 5458 5454 5450 5446 5443 5440 5437 5435 5432 5430 5428 5427 5425 5424 5423 5423 5423 5423 5422 5422 5423 5425 5426 5428 5430 5432 5433 5435 5436 5438 5441 5444 5447
5496 5491 5486 5481 5476 5471 5466 5461 5456 5451 5447 5443 5439 5435 5432 5429 5426 5424 5421 5419 5417 5415 5414 5413 5412 5411 5411 5411 5411 5410 5410 5411 5412 5414 5416 5418 5419 5421 5423 5424 5427 5430 5432
5485 5480 5475 5470 5464 5459 5455 5450 5445 5440 5436 5431 5428 5424 5421 5418 5416 5413 5410 5408 5406 5404 5403 5402 5401 5400 5400 5399 5399 5399 5399 5399 5400 5401 5403 5404 5406 5407 5409 5411 5413 5416 5418
5475 5469 5464 5459 5454 5448 5443 5439 5434 5429 5425 5421 5417 5414 5411 5408 5405 5403 5400 5398 5396 5395 5393 5392 5391 5390 5389 5389 5389 5388 5388 5388 5389 5390 5391 5392 5394 5395 5397 5399 5401 5403 5406
5464 5459 5453 5448 5443 5438 5433 5428 5424 5420 5415 5411 5408 5405 5402 5399 5396 5393 5391 5389 5387 5385 5384 5383 5382 5381 5380 5379 5379 5379 5379 5379 5379 5380 5381 5382 5383 5384 5386 5388 5390 5392 5394
5453 5448 5443 5438 5433 5428 5423 5418 5414 5410 5406 5402 5399 5396 5393 5390 5387 5384 5382 5380 5379 5376 5375 5374 5373 5372 5372 5371 5370 5369 5369 5369 5369 5370 5371 5372 5373 5374 5376 5378 5380 5381 5383
5443 5438 5433 5428 5423 5418 5414 5409 5405 5401 5397 5394 5391 5387 5384 5382 5379 5376 5374 5371 5370 5368 5366 5365 5364 5363 5362 5361 5361 5360 5360 5360 5360 5360 5361 5362 5363 5364 5366 5368 5369 5371 5373